CZ-6A DEB, 58429

Orbit data source: Space-Track

CZ-6A DEB, 58429 is space debris in SSO originally from a launch on Fri, 11 Nov 2022 UTC launched from the Taiyaun Space Center, China (TSC). Debris objects in space refer to the collection of defunct objects orbiting the Earth. Examples of debris include non-operational satellites, rocket bodies, and fragments generated from explosions, collisions, or faulty payload assembly.

Loading next visibility...
Identifier
58429, 2022-151AHX
Orbit
SSO
Country
Flag of CNCN / PRC
Related business
Manufacturer
SAST
Mission
Spacecraft
Bus & Motor
Unknown
Mass
Unknown
Launch date (UTC)
2022-11-11 (4 years ago)
Launch vehicle
Unknown
Launch site
Taiyaun Space Center, China (TSC)
Object type
Payload
Rocket body
Debris
Shape & HBR
Unknown shape, 0.1 m
Radar Cross Section
Small (<0.1 m²)

Expand to show TLE details & history
Last TLE update: 2 days ago

TLE from 2 days ago
0 CZ-6A DEB
1 58429U 22151AHX 26171.42243472  .00001482  00000-0  85428-3 0  9999
2 58429  98.8752 163.2471 0085079   6.9485 353.2843 14.08877690164755
Epoch: 2026-06-20T10:08Z
TLE epoch observation values (Epoch: 2026-06-20T10:08:18.359Z)
Latitude
-0.00005°
Longitude
102.53333°
Altitude
804.918 km
Speed
7.482 km/s
True Right ascension
10h 52m 59s
True Declination
0° 00' 00"
Sunlit
Object was in daylight at epoch
Visualization orbit readout
Latitude
Unknown
Longitude
Unknown
Altitude
Unknown
Speed
Unknown
Apparent Right ascension
Unknown
Apparent Declination
Unknown
Sunlit
N/A
Visualization observer readout
Local Sidereal Time
00:50:01
Azimuth
Unknown
Elevation
Unknown
Doppler factor
Unknown
Orbital elements
Apogee altitude
921.981 km
Perigee altitude
798.811 km
Semi-major axis
7,238.533 km
Eccentricity
0.00851
Inclination
98.8752°
RAAN
163.2471°
Arg. of periapsis
6.9485°
True anomaly
353.16907°
Mean anomaly
353.2843°
Eccentric anomaly
353.22681°
Mean motion
3.52426 °/min
Orbital period
102.15 mins
BSTAR
0.00085428
Loading maneuver chart data...
Computing Atmospheric mass density...
Loading historical data...
Loading historical data...
Loading historical data...
Loading historical data...
Loading historical data...
Loading historical data...
Loading historical data...

Documentation

Showing up to 5 results
|